Location: Dommartin
(49.8004°N, 2.3908°E)
Time: 13:48:49
(UTC+00:00)

Daily predictions for brighter satellites

Satellite Brightness Start Highest point End
(mag) Time Altitude Azimuth Time Altitude Azimuth Time Altitude Azimuth
NOSS 2-1 (C) 4.2 17:03:21 10° NNW 17:07:06 37° NE 17:12:06 10° ESE
CORIOLIS 4.2 17:02:10 10° SSE 17:07:35 81° ENE 17:13:02 10° NNW
Meteor 1-24 Rocket 3.7 17:05:21 10° S 17:11:04 70° E 17:16:35 10° NNE
Cosmos 2263 Rocket 2.6 17:08:35 10° NNW 17:13:52 41° NE 17:19:07 10° ESE
ATLAS 5 CENTAUR R/B 1.5 17:11:25 10° SW 17:15:03 65° NW 17:19:13 10° NE
Lacrosse 4 Rocket 4.0 17:13:15 10° NW 17:15:03 12° NNW 17:16:51 10° N
NOSS 2-1 (D) 4.1 17:11:36 10° NNW 17:15:26 42° NE 17:20:35 10° ESE
Okean O Rocket 3.4 17:14:15 10° E 17:16:03 12° NE 17:17:50 10° NNE
Meteor 2-5 Rocket 3.9 17:15:08 10° S 17:21:00 89° ESE 17:26:48 10° NNE
Cosmos 1656 4.1 17:16:20 10° SW 17:21:47 62° WNW 17:27:13 10° NNE
CZ-2C R/B 3.7 17:16:45 10° N 17:22:01 49° WNW 17:27:20 10° SW
Cosmos 2082 3.7 17:16:47 10° NNW 17:22:25 66° ENE 17:27:59 10° SE
CZ-4C R/B 4.5 17:20:08 10° NE 17:23:24 23° E 17:26:30 10° SSE
Cosmos 1544 Rocket 3.9 17:20:25 10° N 17:24:34 42° ENE 17:28:40 10° SE
SL-08 R/B 3.5 17:19:57 10° NNE 17:24:51 62° ESE 17:29:45 10° S
Cosmos 2228 4.2 17:21:43 10° NNE 17:24:51 20° ENE 17:27:59 10° ESE
DELTA 2 DEB (DPAF) 4.2 17:22:17 10° NNE 17:26:37 57° ESE 17:30:56 10° S
ATLAS 2AS CENTAUR R/B 3.4 17:20:49 10° NW 17:27:27 37° NNE 17:33:43 10° E
Cosmos 2279 Rocket 4.0 17:25:30 10° S 17:31:38 73° E 17:37:50 10° NNE
H-2A R/B 4.3 17:29:25 10° SSW 17:33:51 29° W 17:38:26 10° NNW
ISS -3.6 17:30:51 10° WNW 17:34:12 62° N 17:37:02 14° E
CZ-4B R/B 3.9 17:32:58 10° ESE 17:37:31 30° ENE 17:42:11 10° N
Cosmos 1455 Rocket 3.4 17:33:37 10° NNW 17:37:58 70° W 17:42:17 10° S
Cosmos 1867 3.7 17:36:24 10° NW 17:41:54 82° SW 17:47:20 10° SE
ATLAS CENTAUR R/B 2.8 17:38:35 10° S 17:42:29 26° ESE 17:45:16 15° ENE
Cosmos 614 Rocket 4.0 17:37:27 10° SSW 17:42:41 87° ESE 17:47:55 10° NNE
SMAP 4.3 17:38:26 10° S 17:42:53 45° W 17:47:24 10° NNW
NOSS 3-4 (A) 4.1 17:37:09 10° NW 17:44:01 74° SW 17:51:51 10° SSE
NOSS 3-4 (C) 4.1 17:37:15 10° NW 17:44:07 75° SW 17:51:57 10° SSE
Cosmos 1269 Rocket 4.3 17:39:33 10° SSW 17:44:49 70° WNW 17:50:08 10° NNE
Cosmos 407 Rocket 4.4 17:42:05 10° SSE 17:46:23 27° E 17:50:15 12° NE
Cosmos 1844 Rocket 3.9 17:42:08 10° N 17:46:27 22° NE 17:49:18 15° ENE
Cosmos 2360 4.3 17:42:05 10° SSW 17:47:46 80° WNW 17:53:30 10° NNE
SKYMED 2 3.7 17:45:25 10° NNE 17:49:41 53° E 17:53:55 10° S
NOAA 6 4.4 17:46:46 10° S 17:51:53 70° WSW 17:57:04 10° NNW
Tiangong 0.7 17:51:12 10° SW 17:52:52 14° SSW 17:54:31 10° SSE
Meteor 2-17 Rocket 4.4 17:47:20 10° N 17:53:33 82° E 17:59:43 10° SSE
NOSS 3-3 (A) 4.5 17:48:10 10° WSW 17:53:49 56° NW 18:00:29 10° NE
NOSS 3-3 (C) 4.5 17:48:15 10° WSW 17:53:55 56° NW 18:00:35 10° NE
SL-4 R/B 2.2 17:53:13 10° SW 17:56:33 46° SSE 17:58:33 22° E
Cosmos 1340 Rocket 3.2 17:55:47 10° SSE 17:59:20 37° E 18:02:48 11° NNE
Cosmos 1408 3.3 17:57:01 10° SSE 17:59:54 26° E 18:00:41 24° ENE
USA 290 3.0 17:58:12 10° S 18:01:07 31° ESE 18:02:01 26° ENE
BREEZE-M DEB (TANK) 3.1 18:00:22 10° WSW 18:03:22 50° SSE 18:07:22 18° E
Cosmos 1238 Rocket 4.3 18:02:06 10° NNW 18:06:25 51° W 18:11:33 10° S
PAYLOAD B 4.1 18:03:24 10° SSE 18:08:53 69° ENE 18:14:22 10° NNW
Cosmos 1655 Rocket 3.9 18:02:58 10° N 18:09:17 79° E 18:15:32 10° SSE
NOSS 2-1 (E) 3.8 18:05:31 10° NW 18:09:46 86° NE 18:15:52 10° SE
YAOGAN 1 2.7 18:05:48 10° SE 18:09:58 51° ENE 18:14:11 10° N
Cosmos 2322 Rocket 3.7 18:07:07 10° SE 18:09:28 16° ESE 18:09:28 16° ESE
Cosmos 1607 4.0 18:05:46 10° SSW 18:11:41 54° ESE 18:16:06 19° NE
Cosmos 1140 Rocket 3.6 18:06:46 10° S 18:11:46 51° ESE 18:16:04 14° NE
Cosmos 2227 Rocket 4.5 18:07:13 10° NW 18:11:55 27° WSW 18:16:35 10° SSW
SL-08 ROCKET BODY 4.4 18:06:46 10° N 18:12:35 54° ENE 18:18:17 10° SSE
Cosmos 1703 3.6 18:08:52 10° SSW 18:12:40 65° WNW 18:16:29 10° N
Cosmos 1975 Rocket 4.4 18:12:09 10° SW 18:16:24 42° WNW 18:20:39 10° N
CZ-4 R/B 1.9 18:12:41 10° SE 18:16:32 38° ENE 18:20:22 10° N
Cosmos 1184 Rocket 2.8 18:14:58 10° N 18:16:36 37° N 18:16:36 37° N
Cosmos 1536 Rocket 3.4 18:15:46 10° S 18:20:02 66° E 18:24:21 10° NNE
SL-16 R/B 3.0 18:15:46 10° SSE 18:20:30 28° ESE 18:21:31 27° E
Cosmos 1023 Rocket 4.4 18:16:20 10° S 18:21:26 64° ESE 18:25:41 15° NNE
COSMOS 2455 2.8 18:17:06 10° SSW 18:23:08 87° ESE 18:28:06 16° NE
Cosmos 2369 3.8 18:23:30 10° SSW 18:29:09 78° WNW 18:34:31 12° NNE
Cosmos 44 3.1 18:25:07 10° SW 18:29:26 75° NW 18:32:00 25° NNE
Cosmos 1892 3.4 18:26:52 10° SSE 18:29:27 34° SE 18:29:27 34° SE
Cosmos 1606 Rocket 3.6 18:28:56 10° N 18:33:09 50° ENE 18:35:45 21° SE
RESURS DK-1 4.1 18:31:21 10° N 18:33:19 18° NNE 18:33:19 18° NNE
NOAA 15 4.5 18:29:58 10° SSE 18:35:12 85° ENE 18:40:31 10° NNW
Cosmos 2251 Rocket 3.5 18:30:05 10° SSW 18:35:26 89° WNW 18:40:21 13° NNE
Cosmos 468 Rocket 4.3 18:32:01 10° NNW 18:36:59 42° ENE 18:37:59 38° E
COSMO-SKYMED 1 3.3 18:33:29 10° N 18:37:45 53° WNW 18:41:58 10° SSW
Cosmos 1980 Rocket 2.5 18:34:52 10° SW 18:40:29 66° WNW 18:45:36 13° NNE
Meteor 1-11 4.3 18:37:55 10° S 18:43:34 54° E 18:49:13 10° NNE
Lacrosse 5 3.7 18:40:38 10° SSE 18:42:19 16° SSE 18:42:19 16° SSE
Cosmos 1241 Rocket 4.5 18:38:38 10° SSW 18:45:07 77° SE 18:49:05 26° NE
Cosmos 1328 3.8 18:41:39 10° SSW 18:45:39 79° WNW 18:48:48 16° N
BlueWalker 3 1.8 18:42:32 10° WSW 18:46:26 89° SSE 18:46:49 72° ENE
Lacrosse 5 rocket 2.4 18:45:39 10° NW 18:48:24 28° N 18:48:24 28° N
Cosmos 1697 Rocket 4.1 18:43:42 10° WSW 18:48:50 35° NW 18:54:01 10° NNE
PSLV R/B 4.5 18:46:24 10° S 18:49:55 51° W 18:53:32 10° NNW
CSL-04 Rocket 3.9 18:50:17 43° ENE 18:50:19 43° ENE 18:55:22 10° N
Okean O Rocket 1.4 18:47:20 10° SSE 18:51:37 80° ENE 18:56:04 10° NNW
IRIDIUM 103 4.3 18:47:27 10° N 18:52:35 53° E 18:54:31 35° SE
Feng Yun 1-1 Rocket 4.1 18:49:01 10° SSE 18:54:38 77° ENE 19:00:09 10° NNW
Cosmos 2263 Rocket 3.5 18:52:37 10° NW 18:57:47 40° WSW 19:02:55 10° S
Timation 2 Rocket 4.5 18:52:32 10° NW 18:58:36 60° WSW 19:04:51 10° SSE
MINOTAUR 4 R/B 4.4 18:59:27 56° SW 18:59:27 56° SW 19:02:16 10° SSW
ATLAS 5 CENTAUR R/B 3.5 18:57:27 10° WNW 19:00:21 19° NNW 19:01:38 17° N
BREEZE M DEB (TANK) 4.3 18:57:01 10° W 19:00:41 24° SW 19:01:26 21° SSW
Cosmos 1553 Rocket 4.0 18:56:11 10° SSE 19:02:03 52° E 19:07:58 10° NNE
Cosmos 2228 3.9 18:58:32 10° NNW 19:02:37 47° W 19:06:39 10° SSW
Cosmos 1763 Rocket 3.3 18:59:22 10° NNW 19:04:37 81° ENE 19:05:58 50° SE
Cosmos 1726 Rocket 3.7 19:03:28 10° N 19:07:07 62° N 19:07:07 62° N
Cosmos 1943 Rocket 4.5 19:08:06 10° N 19:08:37 10° NNE 19:08:37 10° NNE
IRIDIUM 106 4.1 19:05:41 10° N 19:10:56 75° E 19:12:36 44° SSE
ISS -2.3 19:07:39 10° WNW 19:09:56 38° W 19:09:56 38° W
Cosmos 841 Rocket 4.5 19:06:17 10° NNW 19:09:45 33° NNE 19:09:45 33° NNE
SL-08 R/B 4.3 19:06:12 10° N 19:12:26 75° E 19:17:34 16° SSE
CZ-4B R/B 4.0 19:12:44 10° S 19:17:52 49° W 19:23:07 10° NNW
ATLAS 2AS CENTAUR R/B 2.6 19:12:01 10° NW 19:19:09 85° SW 19:21:32 44° SE
ATLAS CENTAUR R/B 2.0 19:16:09 10° SW 19:20:48 58° NW 19:21:07 56° NNW
Cosmos 1844 3.6 19:21:56 10° NNW 19:27:34 75° NE 19:27:34 75° NE
Cosmos 407 Rocket 4.3 19:23:07 10° SW 19:28:06 49° WNW 19:30:30 28° N
Cosmos 1844 Rocket 2.5 19:25:31 10° NNW 19:31:01 86° NNW 19:31:01 86° NNW
Cosmos 2278 4.3 19:26:11 10° SW 19:31:44 55° NW 19:34:06 33° N
SL-4 R/B 3.8 19:32:12 10° W 19:33:53 26° W 19:33:53 26° W
Cosmos 540 Rocket 3.8 19:31:14 10° NNW 19:35:25 59° NNW 19:35:25 59° NNW
Cosmos 1190 Rocket 4.5 19:36:36 10° SW 19:41:51 58° WNW 19:42:31 53° NNW
Cosmos 2360 Rocket 4.2 19:40:20 10° S 19:41:22 16° S 19:41:22 16° S
Cosmos 2278 Rocket 4.1 19:41:44 10° NNW 19:43:40 18° N 19:43:40 18° N
CZ-4 R/B 3.7 19:48:09 10° SSW 19:51:32 24° W 19:54:55 10° NW
Cosmos 2322 Rocket 3.2 19:48:11 10° SSW 19:51:22 36° SSW 19:51:22 36° SSW
SL-16 R/B 2.9 19:58:42 10° SW 20:03:28 52° W 20:03:28 52° W
COSMOS 2455 4.4 20:04:40 10° W 20:09:49 28° NNW 20:11:17 25° N
Cosmos 1980 Rocket 4.4 20:21:48 10° WNW 20:25:38 18° NW 20:27:24 16° NNW
